This is the latest recevied weather packets stored in our database for station/object NK7E-1. If no packets are shown the sender has not sent any weather packets the latest 10 day(s).
| Time | Temp. | Humidity | Pressure | Rain* | Wind** | Luminosity | Snow |
|---|---|---|---|---|---|---|---|
| 1777479600 | 21.11° C | 24% | 1017.4 hPa | 0 mm | - | - | - |
| 1777479000 | 20° C | 25% | 1017.4 hPa | 0 mm | - | - | - |
| 1777478401 | 19.44° C | 26% | 1017.4 hPa | 0 mm | - | - | - |
| 1777477799 | 18.89° C | 26% | 1017.4 hPa | 0 mm | - | - | - |
| 1777477200 | 18.33° C | 26% | 1017.6 hPa | 0 mm | - | - | - |
| 1777476600 | 18.33° C | 28% | 1017.4 hPa | 0 mm | - | - | - |
| 1777476000 | 17.78° C | 28% | 1017.4 hPa | 0 mm | - | - | - |
| 1777475400 | 17.78° C | 29% | 1017.4 hPa | 0 mm | - | - | - |
| 1777474799 | 17.22° C | 30% | 1017.3 hPa | 0 mm | - | - | - |
| 1777474198 | 16.67° C | 30% | 1017.4 hPa | 0 mm | - | - | - |
| 1777473598 | 16.67° C | 31% | 1017.4 hPa | 0 mm | - | - | - |
| 1777472998 | 16.67° C | 31% | 1017.2 hPa | 0 mm | - | - | - |
| 1777472398 | 16.11° C | 32% | 1017.1 hPa | 0 mm | - | - | - |
| 1777471798 | 16.11° C | 32% | 1017.2 hPa | 0 mm | - | - | - |
| 1777471198 | 15.56° C | 32% | 1017.2 hPa | 0 mm | - | - | - |
| 1777470597 | 15° C | 31% | 1017.1 hPa | 0 mm | - | - | - |
| 1777469998 | 15° C | 31% | 1017 hPa | 0 mm | - | - | - |
| 1777469398 | 15° C | 31% | 1016.9 hPa | 0 mm | - | - | - |
| 1777468798 | 15° C | 32% | 1016.9 hPa | 0 mm | - | - | - |
| 1777468198 | 15° C | 31% | 1016.8 hPa | 0 mm | - | - | - |
| 1777467598 | 15.56° C | 30% | 1016.8 hPa | 0 mm | - | - | - |
| 1777466998 | 15.56° C | 30% | 1016.7 hPa | 0 mm | - | - | - |
| 1777466397 | 15.56° C | 30% | 1016.5 hPa | 0 mm | - | - | - |
| 1777465798 | 16.11° C | 30% | 1016.4 hPa | 0 mm | - | - | - |
| 1777465198 | 16.11° C | 28% | 1016.4 hPa | 0 mm | - | - | - |
* Rain latest hour (hover to see other rain measurements)
** Current wind speed in m/s (hover to see current wind gust speed)